Location: Champs
(48.8539°N, 2.6040°E)
Time: 17:17:11
(UTC+00:00)

DMSP 5D-2 F13 DEB - Pass Details

Date: 17 August 2022
Orbit: 710 x 775 km, 98.8° (Epoch: 23 September)

Event Time Altitude Azimuth Distance (km) Brightness Sun altitude
Exits shadow 22:52:28 68° 79° (ENE) 838 ? -26.5°
Maximum altitude 22:52:33 68° 71° (ENE) 837 ? -26.5°
Drops below altitude 10° 22:57:41 10° 350° (N) 2,345 ? -26.7°
Sets 23:00:02 0° 348° (NNW) 3,278 ? -26.8°
